Details for AirAsia at WBGG




Go Back


Latest METAR
Local Time

WBGG 150500Z 14006KT 090V220 8000 SCT020 BKN300 34/25 Q1008 NOSIG
15/08/2018, 13:20:24

Description
Results
AirAsia Logo
Number of Pilots based at WBGG
0 Pilots Based here
Number of AirAsia Flights Departed from WBGG
0 Flights Departed
Number of AirAsia Flights Arrived at WBGG
0 Flights Arrived
Number of AirAsia Schedules Departing from WBGG
45 Schedules
Number of AirAsia Schedules Arriving at WBGG
47 Schedules
Number of AirAsia Schedules Departing from WBGG availible today
37 Schedules Today
Number of AirAsia Schedules Arriving at WBGG availible today
38 Schedules Today
Average Landing Rate at WBGG
0 fpm
AirAsia Average Landing Rate at WBGG
0 fpm
Total Fuel Purchased at WBGG by AirAsia
0.00 kgs / 0.00 lbs

Pilots Based at WBGG


Pilot ID
Pilot Name
Pilot Rank
No. of Flights
No. of Flying Hours
There are no pilots assigned to this hub!   Will you be the first?
Content